{"data":{"norad_id":67831,"epoch":"2026-05-25T03:43:49.006848Z","epoch_age_seconds":61917,"freshness":"FRESH","line1":"1 67831U 26033L   26145.15542832  .00011233  00000+0  41698-3 0  9997","line2":"2 67831  42.9994 195.6403 0001257 277.5447  82.5262 15.27587980 16366","mean_motion":15.2758798,"eccentricity":0.0001257,"inclination_deg":42.9994,"raan_deg":195.6403,"arg_perigee_deg":277.5447,"mean_anomaly_deg":82.5262,"bstar":0.00041698,"rev_number":1636,"period_min":94.266256271537,"perigee_km":482.1627530642,"apogee_km":483.88764924157,"semimajor_km":6861.1622011529,"source":"CELESTRAK","updated_at":"2026-05-25T13:38:21.699497Z"}}